User: anonymous   Login
Location: Hokitika
(42.7170°S, 170.9670°E)
Time: 08:30:56
(UTC+13:00)
Language:

ATLAS 3B R/B - Orbit

View from above orbital plane
View from above orbital plane
View from above satellite
View from above satellite

Ground track
Ground track

The orbit data is extracted from the following two-line orbital elements,

1 28538U 05004B   19311.81290596 0.00000000  00000-0  00000-0 0    03
2 28538  63.8326 254.6093 0092559  77.5659 282.4341 13.43126265    01
Epoch (UTC): 07 November 2019 19:30:35
Eccentricity: 0.0092559
inclination: 63.8326°
perigee height: 1028 km
apogee height: 1167 km
right ascension of ascending node: 254.6093°
argument of perigee: 77.5659°
revolutions per day: 13.43126265
mean anomaly at epoch: 282.4341°
orbit number at epoch: 0

The dashed part of the orbit path shows where the satellite is in the earth's shadow,  

DLR